Location: St. Louis
(38.6270°N, 90.1994°W)
Time: 04:57:43
(UTC-06:00)

Tiros 1 - Pass Details

Date: 06 December 2021
Orbit: 630 x 663 km, 48.4° (Epoch: 20 January)

Event Time Altitude Azimuth Distance (km) Brightness Sun altitude
Rises 18:25:54 0° 261° (W) 2,913 12.1 -20.2°
Reaches altitude 10° 18:28:20 10° 269° (W) 2,010 10.8 -20.7°
Maximum altitude 18:32:41 39° 339° (NNW) 954 8.0 -21.5°
Enters shadow 18:33:48 34° 12° (NNE) 1,060 8.0 -21.7°
